Weather in Călăraşi

Romania     44°12′30″N   27°19′05″E
temp.,
°C
wind,
m/s
gust,
m/s
humid.,
%
clouds,
%
prec.,
mm/h
press.,
hPa
HPBL,
m
15 may, sat
sat1500:00+13ssw35755 0.0 101279
03:00+12sw22810 0.0 101217
06:00+12s1183100 0.0 101210
09:00+17sse126382 0.0 1012288
12:00+23se334425 0.0 10111255
15:00+25sse553835 0.0 10102652
18:00+20se485950 0.0 1009171
21:00+16sse5118386 0.8 1009213
16 may, sun
sun1600:00+15ese2281100 0.4 101025
03:00+15se1180100 0.5 101013
06:00+13e348575 0.0 100970
09:00+18ese336772 0.0 1010383
12:00+23se33475 0.0 10091404
15:00+24sse2243100 0.0 10082066
18:00+24ssw224619 0.0 10071549
21:00+18ssw367329 0.1 100793
17 may, mon
mon1700:00+14sw369262 1.4 1008106
03:00+14wsw36940 1.5 1007136
06:00+13wsw49961 0.0 1007241
09:00+17w567882 0.0 1008457
12:00+22w5657100 0.0 10081153
15:00+24w684647 0.0 10071809
18:00+24w695592 0.0 10061774
21:00+18sw4117842 0.2 1007267
18 may, tue
tue1800:00+17wsw61375100 0.0 1008490
03:00+16wsw61478100 0.0 1008495
06:00+16wsw5138297 0.0 1008459
09:00+19w712675 0.0 1010730
12:00+22w8104885 0.0 10101244
15:00+22w71046100 0.0 10111300
18:00+20wsw685486 0.0 10111104
21:00+15sw47755 0.0 1011120
19 may, wed
wed1900:00+17wsw41067100 0.0 1012253
03:00+15w3791100 2.1 1012182
06:00+14nne1187100 0.3 101029
09:00+14nw3690100 0.5 1011421
12:00+13n3496100 3.7 1011227
15:00+15nne228389 5.3 1011399
18:00+15w6784100 0.3 1011429
21:00+12wsw48926 0.6 1012320